Tracking 19226 objects as of 23-Jul-2018
HD Live streaming from Space Station
objects crossing your sky now

INTELSAT 3-F7

Track INTELSAT 3-F7 now!
INTELSAT 3-F7 is classified as:


NORAD ID: 4376
Int'l Code: 1970-032A
Perigee: 35,769.1 km
Apogee: 35,796.0 km
Inclination: 4.8 °
Period: 1,435.5 minutes
Semi major axis: 42153 km
RCS: 0.003 m2 (small)
Launch date: April 23, 1970
Source: International Telecommunications Satellite Organization (ITSO)
Launch site: AIR FORCE EASTERN TEST RANGE (AFETR)
aabbcc
Your satellite tracking list
Your tracking list is empty




NASA's NSSDC Master Catalog

Two Line Element Set (TLE):
1  4376U 70032A   18203.60544616 -.00000315 +00000-0 +00000-0 0  9998
2  4376 004.7752 292.8842 0003193 340.4639 019.7511 01.00311848176731
Source of the keplerian elements: AFSPC